sat.trackr.live / text

‹ back to catalog

STARLINK-31158

NORAD 58854 · 2024-019B

PAYLOAD ACTIVE UNKNOWN

§ Identity

Operator
Country
US
Launch date
2024-01-29
Launch site
AFETR
Launch vehicle
Mass (kg)
RCS (m²)

Purposes: comms

External: N2YO · Heavens-Above · Gunter

§ Orbital elements

Epoch: 2026-09-20T22:21:17.044992Z

Period
94.27 min
Inclination
43.0001°
Eccentricity
0.0000817
Mean motion
15.27570635 rev/d
Perigee alt
482.5 km
Apogee alt
483.6 km
Semi-major
6,861.2 km
B*
-2.8876e-5
RAAN
226.1610°
Arg perigee
268.6770°
Mean anomaly
91.3988°
Rev number
14,894

§ Raw data

STARLINK-311581 58854U 24019B   26263.93144728 -.00001056  00000+0 -28876-4 0  99912 58854  43.0001 226.1610 0000817 268.6770  91.3988 15.27570635148945

JSON: /api/v1/satellites/58854 · /tle

For live sub-satellite position, see the globe view (requires WebGL).

§ Visibility from observer

Set your observer location to see the next 7 days of passes ≥ 10°. The values pass through the URL so the page stays shareable.

No JS? Fill the form by hand. The geolocation button needs JavaScript.